#timestamp,LO_Frequency,Hit,StdDev 
1579302015.4,286046996.8,N
1579302035.2,286046997.7,N
1579302055.1,286046997.4,N
1579302056.0,286046997.4,N
1579302075.8,286046997.5,N
1579302095.7,286046998.6,N
1579302115.5,286046998.5,N
1579302135.3,286047000.8,N
1579302155.2,286046998.1,N
1579302175.0,286046997.0,N
1579302175.9,286046997.0,N
1579302195.8,286046993.5,Y
1579302215.6,286046995.2,P
1579302235.4,286046995.2,N
1579302255.3,286046994.6,P
1579302275.1,286046993.7,Y
1579302295.9,286047000.1,P
1579302315.7,286047001.9,N
1579302335.5,286047000.4,N
1579302355.4,286047000.0,N
1579302375.2,286046998.3,N
1579302395.1,286047001.6,N
1579302396.0,286047001.6,N
1579302415.8,286047004.4,N
1579302435.6,286046999.7,N
1579302455.5,286046998.1,N
1579302475.3,286046998.9,N
1579302495.2,286047000.9,N
1579302515.9,286047001.7,N
1579302535.7,286047001.5,N
1579302555.6,286047002.5,N
1579302575.4,286046998.5,N
1579302595.2,286046997.0,N
1579302615.1,286046997.8,N
1579302616.0,286046997.8,N
1579302635.8,286046997.4,N
1579302655.7,286046997.7,N
1579302675.5,286046997.5,N
1579302695.3,286046997.5,N
1579302715.2,286046995.9,N
1579302735.0,286046996.9,N
1579302735.9,286046996.9,N
1579302755.8,286046998.6,N
1579302775.6,286046999.4,N
1579302795.4,286047001.9,N
1579302815.3,286047003.7,N
1579302835.1,286047000.6,N
1579302855.9,286046999.9,N
1579302875.7,286047000.7,N
1579302895.5,286047000.3,N
1579302915.4,286047002.6,N
1579302935.2,286046999.9,N
1579302955.0,286047001.6,N
1579302955.9,286047001.6,N
1579302975.8,286047001.5,N
1579302995.6,286047005.7,N
1579303015.5,286047007.0,Y
1579303035.3,286047003.0,P
1579303055.1,286047001.4,N
1579303075.9,286047001.5,N
1579303095.7,286047002.7,N
1579303115.5,286047000.4,N
1579303135.4,286046998.1,N
1579303155.2,286046996.5,N
1579303175.1,286046998.9,N
1579303176.0,286046998.9,N
1579303195.8,286046999.1,N
1579303215.6,286046997.0,N
1579303235.5,286046997.2,N
1579303255.3,286046997.8,N
1579303275.1,286046995.4,N
1579303295.9,286046997.9,N
1579303315.7,286046995.5,N
1579303335.6,286046995.4,N
1579303355.4,286046993.8,N
1579303375.2,286046996.4,N
1579303395.1,286046994.3,N
1579303396.0,286046994.3,N
1579303415.8,286046991.7,Y
1579303435.7,286046996.1,P
1579303455.5,286046997.4,N
1579303475.3,286046997.3,P
1579303495.2,286046996.7,Y
1579303515.0,286047000.8,P
1579303515.9,286047000.8,N
1579303535.8,286047000.8,N
1579303555.7,286046999.1,N
1579303575.5,286046997.0,N
1579303595.3,286046998.5,N
1579303615.2,286046999.0,N
1579303635.0,286046998.3,N
1579303635.9,286046998.3,N
1579303655.8,286046999.1,N
1579303675.6,286046999.4,N
1579303695.4,286046999.1,N
1579303715.3,286046999.6,N
1579303735.1,286046997.0,N
1579303755.9,286046999.3,N
1579303775.7,286046996.7,N
1579303795.5,286046995.5,Y
1579303815.4,286046997.2,P
1579303835.2,286046997.6,N
1579303855.0,286046995.5,P
1579303856.0,286046995.5,Y
1579303875.8,286046998.6,P
1579303895.6,286046999.4,N
1579303915.5,286046996.6,P
1579303935.3,286046996.7,Y
1579303955.1,286047001.0,P
1579303975.9,286047000.1,N
1579303995.7,286047000.5,N
1579304015.6,286047000.5,N
1579304035.4,286046998.1,N
1579304055.2,286046998.2,N
1579304075.1,286047002.7,N
1579304076.0,286047002.7,N
1579304095.8,286047000.4,N
1579304115.7,286047001.0,N
1579304135.5,286047001.2,N
1579304155.3,286047000.6,N
1579304175.2,286047000.0,N
1579304195.9,286046999.9,N
1579304215.7,286047000.8,N
1579304235.6,286046998.2,N
1579304255.4,286046998.5,N
1579304275.3,286047000.7,N
1579304295.1,286046998.6,N
1579304296.0,286046998.6,N
1579304315.8,286047001.1,N
1579304335.7,286046998.8,N
1579304355.5,286046999.5,N
1579304375.3,286046998.2,N
1579304395.2,286046998.9,N
1579304415.0,286046999.0,N
1579304415.9,286046999.0,N
1579304435.8,286046998.4,N
1579304455.6,286046998.7,N
1579304475.4,286046999.0,N
1579304495.3,286046998.4,N
1579304515.1,286046997.3,N
1579304535.8,286046996.9,N
1579304555.7,286046996.5,N
1579304575.5,286046999.4,N
1579304595.4,286046996.9,N
1579304615.2,286046999.1,N
1579304635.0,286046998.4,N
1579304635.9,286046998.4,N
1579304655.8,286046999.1,N
1579304675.6,286046999.1,N
1579304695.4,286046998.7,N
1579304715.3,286046997.7,N
1579304735.1,286046996.2,Y
1579304755.9,286046998.9,P
1579304775.7,286046999.0,P
1579304795.5,286046999.2,P
1579304815.4,286046999.6,N
1579304835.2,286046999.2,N
1579304855.0,286046999.6,N
1579304855.9,286046999.6,N
1579304875.8,286046999.1,N
1579304895.6,286047001.1,Y
1579304915.5,286047000.8,P
1579304935.3,286047002.1,N
1579304955.1,286047004.3,P
1579304975.9,286047001.9,N
1579304995.7,286047001.8,N
1579305015.6,286047004.3,N
1579305035.4,286047001.6,N
1579305055.2,286047001.3,N
1579305075.1,286047003.5,N
1579305076.0,286047003.5,N
1579305095.8,286047005.5,Y
1579305115.7,286047002.8,P
1579305135.5,286047003.3,P
1579305155.3,286047005.7,P
1579305175.2,286047004.4,Y
1579305195.0,286046999.9,P
1579305195.9,286046999.9,N
1579305215.7,286047000.2,N
1579305235.6,286046998.3,N
1579305255.4,286047000.1,N
1579305275.3,286046999.5,N
1579305295.1,286046998.7,N
1579305296.0,286046998.7,N
1579305315.8,286046998.1,N
1579305335.7,286046999.0,N
1579305355.5,286046998.6,N
1579305375.4,286047001.4,N
1579305395.2,286047004.0,N
1579305415.0,286047002.3,N
1579305415.9,286047002.3,N
1579305435.8,286047002.3,N
1579305455.6,286047002.3,N
1579305475.4,286046999.9,N
1579305495.3,286047001.9,N
1579305515.1,286047000.5,N
1579305535.9,286047000.8,N
1579305555.7,286046998.1,N
1579305575.5,286046999.6,N
1579305595.4,286047000.4,N
